Zurück zum Katalog

FENGYUN 1C DEB

LostSSO
NORAD 32313·DEBRIS·🇨🇳 China

Gestartet May 10, 1999 von Taiyuan Satellite Launch Center

Loading…

Nächste Überflüge (nächste 24 Stunden)

TLE

VeraltetSource: Space-Track

Epoche: Jun 2, 2025, 21:49 UTC

1 32313U 99025CXE 25153.90916681  .00003249  00000-0  19033-2 0  9999
2 32313  99.0304 222.9236 0130999 243.8326 114.9320 14.04751176908580

Verfolge FENGYUN 1C DEB in Echtzeit mit AllMySat

Download on the App Store